Regional Weather Roundup
Issued by NWS Upton, NY

Current Version | Previous Version | Graphics & Text | Print | Product List | Glossary On
Versions: 1 2 3 4 5 6 7 8 9 10 11 12 13 14 15 16 17 18 19 20 21 22 23 24 25 26 27 28 29 30 31 32 33 34 35 36 37 38 39 40 41 42 43 44 45 46 47
000 ASUS41 KOKX 281405 RWROKX REGIONAL WEATHER ROUNDUP NATIONAL WEATHER SERVICE NEW YORK NY 900 AM EST SAT FEB 28 2015 NOTE: "FAIR" INDICATES FEW OR NO CLOUDS BELOW 12,000 FEET WITH NO SIGNIFICANT WEATHER AND/OR OBSTRUCTIONS TO VISIBILITY. NYZ071-072-176-178-NJZ106-104-281500- NEW YORK CITY METRO AREA CITY SKY/WX TMP DP RH WIND PRES REMARKS CENTRAL PARK SUNNY 17 -2 43 N5 30.83R WCI 10 LAGUARDIA APRT MOSUNNY 19 -1 41 VRB3 30.82R KENNEDY INTL MOSUNNY 20 -1 40 N8 30.83R WCI 10 NEWARK/LIBERTY MOSUNNY 18 -1 43 NW6 30.83R WCI 10 BRNX BOT. GARD N/A N/A N/A N/A NW3 30.82R TETERBORO SUNNY 16 -3 43 N7 30.82R WCI 6 $$ NYZ177-179-078>081-281500- LONG ISLAND NEW YORK CITY SKY/WX TMP DP RH WIND PRES REMARKS FARMINGDALE SUNNY 18 2 49 N10G18 30.81R WCI 6 ISLIP MOSUNNY 18 3 52 N13G23 30.78R WCI 5 SHIRLEY SUNNY 18 4 54 NW14G20 30.80R WCI 4 WESTHAMPTON SUNNY 17 3 54 N15G25 30.79S WCI 2 MONTAUK POINT N/A 19 5 54 N7 30.78R WCI 10 $$ NYZ052-065-067-281500- HUDSON VALLEY CITY SKY/WX TMP DP RH WIND PRES REMARKS WHITE PLAINS SUNNY 13 -1 54 NW10 30.76R WCI 0 NEWBURGH SUNNY 9 0 66 VRB3 30.79R MONTGOMERY SUNNY 8 -5 55 CALM 30.79R POUGHKEEPSIE SUNNY 10 0 63 CALM 30.82R ALBANY SUNNY 11 -1 58 W8 30.80R WCI -1 $$ NJZ001-105-106-008-010-013-015-019>022-104-281500- NEW JERSEY CITY SKY/WX TMP DP RH WIND PRES REMARKS NEWARK/LIBERTY MOSUNNY 18 -1 43 NW6 30.83R WCI 10 TETERBORO SUNNY 16 -3 43 N7 30.82R WCI 6 CALDWELL SUNNY 15 -4 42 N5 30.82R WCI 8 MORRISTOWN SUNNY 16 0 48 NE7 30.83R WCI 6 SOMERVILLE SUNNY 16 -4 41 NW7 30.81R WCI 6 SUSSEX SUNNY 13 -3 49 N5 30.77R WCI 5 ANDOVER N/A 13 -4 46 VRB6 30.78R WCI 4 TRENTON SUNNY 16 -3 43 N9 30.82R WCI 4 MILLVILLE SUNNY 20 0 41 N10 30.83R WCI 9 ATLANTIC CITY SUNNY 19 0 43 N12 30.83R WCI 7 WRIGHTSTOWN SUNNY 17 -2 42 N12 30.81R WCI 4 TOMS RIVER SUNNY 18 0 45 N10 30.83R WCI 6 BELMAR SUNNY 16 -2 45 NW10 30.81R WCI 3 $$ PAZ047>061-062-071-281500- EASTERN PENNSYLVANIA CITY SKY/WX TMP DP RH WIND PRES REMARKS PHILADELPHIA MOSUNNY 20 -2 38 N9 30.86R WCI 9 ALLENTOWN SUNNY 13 -5 44 N6 30.81R WCI 4 SCRANTON SUNNY 11 -5 48 CALM 30.77R $$ CTZ002-004>006-009-010-012-RIZ004-006-007-MAZ004-011-015-281500- SOUTHERN NEW ENGLAND IN CT CITY SKY/WX TMP DP RH WIND PRES REMARKS BRADLEY INTL SUNNY 15 -1 49 CALM 30.78R HARTFORD SUNNY 14 0 53 NW9 30.80R WCI 2 DANBURY SUNNY 14 -2 49 N9 30.78R WCI 2 WTRBRY/OXFORD SUNNY 10 -6 48 N10 30.74R WCI -3 BRIDGEPORT SUNNY 17 2 51 N7 30.81R WCI 8 MERIDEN SUNNY 15 0 51 N8 30.80R WCI 4 NEW HAVEN SUNNY 16 1 51 N7 30.79R WCI 6 CHESTER FAIR 16 1 53 N14 30.75R WCI 1 GROTON SUNNY 16 2 54 N15 30.77R WCI 1 WILLIMANTIC SUNNY 12 -1 56 CALM 30.77R IN RI CITY SKY/WX TMP DP RH WIND PRES REMARKS PROVIDENCE SUNNY 17 -1 45 N9 30.76R WCI 6 BLOCK ISLAND SUNNY 18 5 57 N9 30.74R WCI 6 WESTERLY SUNNY 17 0 47 N10 30.77R WCI 5 IN MA CITY SKY/WX TMP DP RH WIND PRES REMARKS BOSTON SUNNY 16 -1 47 NW9 30.75R WCI 4 WORCESTER SUNNY 12 -2 53 NW10 30.66R WCI -1 WESTFIELD SUNNY 11 0 61 CALM 30.76R PROVINCETOWN SUNNY 21 9 58 NW9 30.73R WCI 11 NANTUCKET SUNNY 23 13 65 NW13 30.73R WCI 11 $$ ANZ330-335-338-340-345-350-353-355-281500- COASTAL MARINE OBSERVATIONS STATION/POSITION TIME SKY/WX TEMP WIND PRES VSBY WAVE AIR SEA DIR/SP/G HT/PER (UTC) (F) (DEG/KT/KT) (MB) (MI) (FT/S) NY HARB ENTRANCE 1400 19 38 350/ 6/ 10 1043.5 3/10 4S FIRE IS NOT AVBL 20S FIRE ISLAND 1300 36 1042.7 4/10 23SW MTP 1400 N/A 4/10 HUDSON CANYON NOT AVBL EXECUTION ROCKS NOT AVBL WESTERN LI SOUND NOT AVBL CENTRAL LI SOUND NOT AVBL EASTERN LI SOUND NOT AVBL ROBBINS REEF 1400 15 330/ 8/ 11 1042.6 $$ >>>>>>>>>>>>>>>>>>>>>>>>>>>> KEY <<<<<<<<<<<<<<<<<<<<<<<<<<< > < > SKY/WX - SKY CONDITION/PRESENT WEATHER < > TMP - TEMPERATURE IN FAHRENHEIT < > DP - DEWPOINT IN FAHRENHEIT < > RH - RELATIVE HUMIDITY IN PERCENT < > WIND - DIRECTION AND SPEED IN MPH < > PRES - MEAN SEA LEVEL PRESSURE IN INCHES OF HG < > WCI - WIND CHILL INDEX < > VSB - VISIBILITY IN MILES < > HX - HEAT INDEX < > TC - TEMPERATURE IN CELSIUS < > VRB - VARIABLE WIND DIRECTION < > < >>>>>>>>>>>>>>>>>>>>>>>>>>>> KEY <<<<<<<<<<<<<<<<<<<<<<<<<<<

USA.gov is the U.S. government's official web portal to all federal, state and local government web resources and services.